This is the latest recevied weather packets stored in our database for station/object DL9GRB-13. If no packets are shown the sender has not sent any weather packets the latest 10 day(s).
| Time | Temp. | Humidity | Pressure | Rain* | Wind** | Luminosity | Snow |
|---|---|---|---|---|---|---|---|
| 1777706347 | 19.44° C | 52% | 1019.1 hPa | 0 mm | - | 370 W/m² | - |
| 1777706167 | 19.44° C | 51% | 1019.2 hPa | 0 mm | - | 363 W/m² | - |
| 1777705987 | 18.89° C | 52% | 1019.1 hPa | 0 mm | - | 355 W/m² | - |
| 1777705807 | 18.89° C | 51% | 1019.2 hPa | 0 mm | - | 349 W/m² | - |
| 1777705627 | 18.89° C | 51% | 1019.1 hPa | 0 mm | - | 342 W/m² | - |
| 1777705447 | 18.89° C | 50% | 1019.3 hPa | 0 mm | - | 334 W/m² | - |
| 1777705267 | 18.89° C | 51% | 1019.4 hPa | 0 mm | - | 327 W/m² | - |
| 1777705087 | 18.33° C | 52% | 1019.2 hPa | 0 mm | - | 320 W/m² | - |
| 1777704907 | 18.33° C | 53% | 1019.3 hPa | 0 mm | - | 313 W/m² | - |
| 1777704727 | 18.33° C | 52% | 1019.2 hPa | 0 mm | - | 304 W/m² | - |
| 1777704547 | 17.78° C | 53% | 1019.2 hPa | 0 mm | - | 297 W/m² | - |
| 1777704367 | 17.78° C | 53% | 1019.2 hPa | 0 mm | - | 287 W/m² | - |
| 1777704187 | 17.78° C | 53% | 1019.3 hPa | 0 mm | - | 277 W/m² | - |
| 1777704007 | 17.22° C | 53% | 1019.4 hPa | 0 mm | - | 266 W/m² | - |
| 1777703827 | 17.22° C | 54% | 1019.3 hPa | 0 mm | - | 258 W/m² | - |
| 1777703647 | 17.22° C | 55% | 1019.4 hPa | 0 mm | - | 248 W/m² | - |
| 1777703467 | 16.67° C | 55% | 1019.4 hPa | 0 mm | - | 237 W/m² | - |
| 1777703287 | 16.67° C | 55% | 1019.5 hPa | 0 mm | - | 226 W/m² | - |
| 1777703107 | 16.67° C | 56% | 1019.6 hPa | 0 mm | - | 214 W/m² | - |
| 1777702927 | 16.67° C | 56% | 1019.3 hPa | 0 mm | - | 201 W/m² | - |
| 1777702747 | 16.11° C | 55% | 1019.5 hPa | 0 mm | - | 186 W/m² | - |
| 1777702567 | 16.11° C | 57% | 1019.5 hPa | 0 mm | - | 171 W/m² | - |
| 1777702387 | 15.56° C | 57% | 1019.5 hPa | 0 mm | - | 159 W/m² | - |
| 1777702207 | 15.56° C | 58% | 1019.7 hPa | 0 mm | - | 148 W/m² | - |
| 1777702027 | 15.56° C | 58% | 1019.5 hPa | 0 mm | - | 139 W/m² | - |
* Rain latest hour (hover to see other rain measurements)
** Current wind speed in m/s (hover to see current wind gust speed)